[[{"header":{"parameterUnit":"m.s-1","parameterCategory":2,"la1":30.2992,"la2":30.254,"lo1":-89.0895,"lo2":-89.0443,"dy":0.0025,"dx":0.0025,"nx":19,"ny":19,"refTime":"2026-05-12T21:00:00:Z","depth":"0","parameterNumber":2,"parameterNumberName":"U-component_of_CURRENTS"},"data":[0,0,0,0.1134,0.1135,0.1149,0.1149,0.1103,0.1103,0,0,0,0,0,0,0,0,0,0,0,0.1121,0.1121,0.1134,0.1135,0.1149,0.1149,0.1103,0.1103,0,0,0,0,0,0,0,0,0,0,0,0.1121,0.1121,0.1122,0.1135,0.1149,0.1149,0.1103,0.1107,0,0,0,0,0,0,0,0,0,0,0.11,0.1096,0.1121,0.1122,0.1135,0.1149,0.1149,0.1108,0.1106,0.1081,0,0.1084,0,0.1097,0.1099,0.1099,0,0,0,0.1127,0.1097,0.1107,0.1122,0.1135,0.1149,0.1141,0.1107,0.1106,0.1079,0.1084,0.1083,0.1097,0.1098,0.1098,0.1049,0.1049,0,0,0.1127,0.1115,0.1109,0.1107,0.1139,0.114,0.1141,0.1107,0.11,0.1083,0.1082,0.1096,0.1098,0.1098,0.1049,0.1049,0,0,0,0.1129,0.1114,0.1127,0.1108,0.1119,0.1141,0.1142,0.1101,0.1108,0.1082,0.1095,0.1098,0.1097,0.1049,0.1049,0.1077,0,0,0,0.1129,0.1117,0.1127,0.1119,0.112,0.1118,0.1136,0.111,0.1107,0.1095,0.1098,0.1096,0.1049,0.1049,0.1077,0.1114,0,0,0,0.1121,0.1116,0.112,0.1118,0.113,0.112,0.1124,0.111,0.1115,0.1099,0.1096,0.1049,0.1049,0.1076,0.1112,0.1227,0,0,0,0.1106,0.1085,0.1119,0.1103,0.113,0.1117,0.1124,0.1108,0.1092,0.1097,0.1049,0.1049,0.1076,0.1111,0.1224,0.136,0.1385,0,0,0.1067,0.108,0.1072,0.1103,0.1089,0.1115,0.1102,0.1089,0.108,0.1054,0.1054,0.1077,0.1112,0.1226,0.1345,0.137,0,0,0,0.1052,0.1042,0.1043,0.105,0.1062,0.1087,0.1077,0.1085,0.1083,0.1073,0.1063,0.1085,0.1157,0.1232,0.1251,0.1389,0.1047,0.1048,0.1048,0.0965,0.0994,0.099,0.1021,0.1025,0.1056,0.108,0.109,0.1065,0.1076,0.1097,0.1189,0.1264,0.1281,0.1419,0.1071,0.1071,0.1071,0.1071,0.0927,0.0942,0.098,0.0993,0.1038,0.1044,0.109,0.1102,0.117,0.1114,0.1183,0.1242,0.1305,0.1444,0.1073,0.1073,0.1072,0.1072,0.1072,0.0907,0.092,0.0949,0.0995,0.1041,0.1079,0.1169,0.1199,0.1219,0.1266,0.1413,0.1414,0.1555,0.1325,0.1326,0.1326,0.1327,0.1327,0.1328,0.0888,0.0915,0.0944,0.1001,0.1049,0.1134,0.1242,0.1311,0.1449,0.1482,0.1484,0.161,0.1268,0.1279,0.1338,0.1336,0.1334,0.1334,0.1333,0.0863,0.0886,0.0937,0.0985,0.1099,0.1219,0.1324,0.1553,0.1654,0.1751,0.1916,0.1617,0.1646,0.163,0.1651,0.1802,0.1802,0.1802,0.1802,0.0844,0.0856,0.0934,0.1016,0.1123,0.1256,0.1474,0.1694,0.2,0.2178,0.2184,0.2145,0.212,0.2172,0.2144,0.2172,0.2453,0.2454,0.2455,0.0828,0.0864,0.092,0.1012,0.1138,0.13,0.1526,0.1836,0.2305,0.2489,0.2355,0.2328,0.2267,0.2217,0.2285,0.2235,0.2275,0,0]},{"header":{"parameterUnit":"m.s-1","parameterCategory":2,"la1":30.2992,"la2":30.254,"lo1":-89.0895,"lo2":-89.0443,"dy":0.0025,"dx":0.0025,"nx":19,"ny":19,"refTime":"2026-05-12T21:00:00:Z","depth":"0","parameterNumber":3,"parameterNumberName":"V-component_of_CURRENTS"},"data":[0,0,0,-0.1069,-0.1073,-0.1242,-0.1243,-0.1357,-0.1358,0,0,0,0,0,0,0,0,0,0,0,-0.0994,-0.0995,-0.1069,-0.1073,-0.1242,-0.1243,-0.1357,-0.1358,0,0,0,0,0,0,0,0,0,0,0,-0.0993,-0.0994,-0.0996,-0.1074,-0.1242,-0.1243,-0.1356,-0.1252,0,0,0,0,0,0,0,0,0,0,-0.11,-0.1052,-0.0994,-0.0996,-0.1075,-0.1242,-0.1243,-0.1248,-0.1259,-0.1253,0,-0.1279,0,-0.1331,-0.1364,-0.1364,0,0,0,-0.1065,-0.1043,-0.109,-0.0996,-0.1077,-0.1242,-0.1164,-0.1255,-0.1267,-0.1266,-0.1281,-0.1287,-0.1332,-0.1364,-0.1365,-0.1366,-0.1366,0,0,-0.1056,-0.1024,-0.1082,-0.1097,-0.1119,-0.1158,-0.1169,-0.1263,-0.1271,-0.1282,-0.1291,-0.1334,-0.1365,-0.1365,-0.1367,-0.1366,0,0,0,-0.1034,-0.1017,-0.1063,-0.1091,-0.1136,-0.1164,-0.1176,-0.1267,-0.1283,-0.1292,-0.1336,-0.1365,-0.1366,-0.1368,-0.1367,-0.1273,0,0,0,-0.1028,-0.1006,-0.1059,-0.1041,-0.1134,-0.122,-0.1177,-0.1276,-0.1289,-0.1335,-0.1365,-0.1367,-0.1369,-0.1367,-0.1277,-0.119,0,0,0,-0.0986,-0.1002,-0.1021,-0.1039,-0.1119,-0.122,-0.1242,-0.128,-0.1315,-0.1364,-0.1367,-0.1369,-0.1367,-0.1281,-0.1198,-0.1091,0,0,0,-0.0947,-0.0953,-0.102,-0.1043,-0.1117,-0.1162,-0.1242,-0.1286,-0.1318,-0.1366,-0.1368,-0.1367,-0.1282,-0.1202,-0.1097,-0.0917,-0.0877,0,0,-0.0923,-0.0949,-0.0962,-0.1027,-0.1038,-0.1139,-0.1147,-0.1231,-0.1291,-0.1331,-0.1332,-0.1276,-0.1198,-0.1092,-0.0828,-0.079,0,0,0,-0.0935,-0.0923,-0.0944,-0.0977,-0.1042,-0.1066,-0.1163,-0.1198,-0.1242,-0.131,-0.127,-0.1223,-0.116,-0.1064,-0.1034,-0.1108,-0.136,-0.136,-0.136,-0.0794,-0.0849,-0.0837,-0.0892,-0.0925,-0.1011,-0.1029,-0.1088,-0.1174,-0.1172,-0.1145,-0.0992,-0.0891,-0.0865,-0.0946,-0.1168,-0.1168,-0.1168,-0.1167,-0.068,-0.0657,-0.0727,-0.0724,-0.078,-0.0789,-0.0887,-0.0947,-0.0944,-0.105,-0.0994,-0.0967,-0.0825,-0.0924,-0.1161,-0.1162,-0.1163,-0.1164,-0.1164,-0.0548,-0.054,-0.0559,-0.0539,-0.0539,-0.0627,-0.0572,-0.0688,-0.0803,-0.0772,-0.0657,-0.0657,-0.0741,-0.0744,-0.0743,-0.0742,-0.0742,-0.0741,-0.0741,-0.0383,-0.0407,-0.0331,-0.0331,-0.0308,-0.0286,-0.0366,-0.0364,-0.0402,-0.0491,-0.0491,-0.0674,-0.0862,-0.0876,-0.0727,-0.073,-0.0731,-0.0733,-0.0734,-0.0206,-0.0198,-0.0094,-0.0046,0.002,0.0116,0.0029,0.0064,0.0034,0.0059,-0.0259,-0.0346,-0.0342,-0.0367,-0.0368,-0.0097,-0.0097,-0.0097,-0.0097,-0.0056,-0.0052,0.0106,0.0203,0.0308,0.03,0.049,0.047,0.0248,0.0122,-0.0045,-0.0141,-0.0163,-0.0159,-0.0189,-0.0192,0.0118,0.0118,0.0118,0.0082,0.0101,0.0237,0.0309,0.0415,0.0508,0.0686,0.0791,0.0451,0.0107,-0.0182,-0.0191,-0.0366,-0.0395,-0.0427,-0.0462,-0.0481,0,0]}],[{"header":{"parameterUnit":"m.s-1","parameterCategory":2,"la1":30.2992,"la2":30.254,"lo1":-89.0895,"lo2":-89.0443,"dy":0.0025,"dx":0.0025,"nx":19,"ny":19,"refTime":"2026-05-12T21:00:00:Z","depth":"2","parameterNumber":2,"parameterNumberName":"U-component_of_CURRENTS"},"data":[0,0,0,0.0753,0.0753,0.0738,0.0738,0.0727,0.0727,0,0,0,0,0,0,0,0,0,0,0,0.0756,0.0756,0.0753,0.0753,0.0738,0.0738,0.0727,0.0727,0,0,0,0,0,0,0,0,0,0,0,0.0756,0.0756,0.0755,0.0753,0.0738,0.0738,0.0727,0.0737,0,0,0,0,0,0,0,0,0,0,0.0751,0.0762,0.0756,0.0755,0.0753,0.0738,0.0738,0.0737,0.0736,0.0734,0,0.0726,0,0.0725,0.0726,0.0726,0,0,0,0.0757,0.0763,0.0747,0.0755,0.0753,0.0738,0.0746,0.0737,0.0736,0.0733,0.0726,0.0726,0.0725,0.0725,0.0725,0.0722,0.0722,0,0,0.0758,0.0767,0.0748,0.0746,0.0741,0.0746,0.0745,0.0736,0.0739,0.0726,0.0725,0.0725,0.0725,0.0725,0.0722,0.0722,0,0,0,0.0757,0.0767,0.0751,0.0746,0.0743,0.0746,0.0745,0.074,0.073,0.0725,0.0725,0.0725,0.0725,0.0722,0.0722,0.0772,0,0,0,0.0758,0.0767,0.0752,0.0759,0.0743,0.0743,0.0749,0.0731,0.073,0.0725,0.0725,0.0725,0.0722,0.0722,0.0771,0.0821,0,0,0,0.0758,0.0767,0.076,0.0759,0.075,0.0743,0.0734,0.0731,0.073,0.0726,0.0725,0.0722,0.0722,0.0769,0.0817,0.0931,0,0,0,0.0776,0.0752,0.076,0.0744,0.075,0.0736,0.0734,0.0734,0.0731,0.0725,0.0722,0.0722,0.0769,0.0815,0.0928,0.1055,0.1082,0,0,0.0751,0.075,0.0741,0.0747,0.0744,0.0738,0.0745,0.0744,0.0733,0.0726,0.0726,0.0771,0.0817,0.0931,0.1064,0.1092,0,0,0,0.0737,0.0726,0.0729,0.0731,0.0731,0.0758,0.0742,0.0751,0.0764,0.0731,0.0761,0.0788,0.0859,0.0926,0.0948,0.0723,0.0723,0.0723,0.0723,0.0681,0.07,0.0706,0.0726,0.0736,0.0763,0.079,0.0797,0.0771,0.0789,0.082,0.0929,0.0997,0.1016,0.0794,0.0794,0.0794,0.0794,0.0794,0.0656,0.0676,0.071,0.0732,0.0777,0.0794,0.0841,0.0849,0.0921,0.0859,0.0926,0.0963,0.1043,0.0798,0.0797,0.0797,0.0797,0.0796,0.0796,0.0648,0.067,0.069,0.0752,0.0811,0.0856,0.0956,0.0981,0.0996,0.1044,0.1172,0.1172,0.1011,0.1099,0.11,0.1101,0.1102,0.1102,0.1102,0.0654,0.0674,0.0721,0.0791,0.0846,0.0948,0.105,0.1126,0.1255,0.1267,0.1268,0.1034,0.1024,0.103,0.1113,0.1111,0.111,0.1109,0.1108,0.0676,0.0693,0.0755,0.0813,0.094,0.1038,0.1154,0.1377,0.1483,0.1582,0.1407,0.1396,0.1414,0.1397,0.1412,0.159,0.159,0.159,0.159,0.0693,0.0707,0.0782,0.0865,0.0979,0.1079,0.1258,0.1381,0.1518,0.1504,0.1506,0.1411,0.1397,0.1405,0.1387,0.1397,0.1572,0.1571,0.157,0.0718,0.0738,0.0792,0.0868,0.0986,0.1103,0.123,0.1309,0.14,0.1551,0.1314,0.1626,0.1489,0.1465,0.1476,0.1448,0.1464,0,0]},{"header":{"parameterUnit":"m.s-1","parameterCategory":2,"la1":30.2992,"la2":30.254,"lo1":-89.0895,"lo2":-89.0443,"dy":0.0025,"dx":0.0025,"nx":19,"ny":19,"refTime":"2026-05-12T21:00:00:Z","depth":"2","parameterNumber":3,"parameterNumberName":"V-component_of_CURRENTS"},"data":[0,0,0,-0.0107,-0.0108,-0.0212,-0.0213,-0.0496,-0.0498,0,0,0,0,0,0,0,0,0,0,0,-0.011,-0.011,-0.0107,-0.0108,-0.0212,-0.0213,-0.0496,-0.0498,0,0,0,0,0,0,0,0,0,0,0,-0.011,-0.011,-0.0111,-0.0108,-0.0212,-0.0213,-0.0495,-0.0392,0,0,0,0,0,0,0,0,0,0,-0.0277,-0.02,-0.011,-0.0111,-0.0108,-0.0211,-0.0213,-0.0386,-0.0399,-0.0475,0,-0.0483,0,-0.0461,-0.0516,-0.0517,0,0,0,-0.0161,-0.0188,-0.024,-0.0111,-0.0108,-0.0211,-0.018,-0.0392,-0.0407,-0.0492,-0.0486,-0.0494,-0.0465,-0.0518,-0.0519,-0.0631,-0.063,0,0,-0.0155,-0.0115,-0.023,-0.0249,-0.0128,-0.0176,-0.0182,-0.04,-0.0401,-0.0487,-0.05,-0.047,-0.0519,-0.0521,-0.0632,-0.0631,0,0,0,-0.0103,-0.011,-0.0155,-0.024,-0.0226,-0.0178,-0.0185,-0.0392,-0.0413,-0.0502,-0.0473,-0.0521,-0.0524,-0.0633,-0.0631,-0.059,0,0,0,-0.0102,-0.0076,-0.0152,-0.0127,-0.022,-0.0275,-0.0172,-0.04,-0.0421,-0.0472,-0.0521,-0.0527,-0.0633,-0.0632,-0.0593,-0.0545,0,0,0,-0.0106,-0.0074,-0.009,-0.0125,-0.0144,-0.0271,-0.0305,-0.0404,-0.0402,-0.0517,-0.0527,-0.0634,-0.0632,-0.0595,-0.055,-0.0505,0,0,0,-0.006,-0.0088,-0.0089,-0.0099,-0.0142,-0.0221,-0.0304,-0.0392,-0.0488,-0.0522,-0.0633,-0.0632,-0.0596,-0.0553,-0.0509,-0.0392,-0.0368,0,0,-0.0077,-0.0088,-0.0094,-0.0098,-0.0163,-0.0211,-0.0256,-0.0419,-0.0481,-0.0585,-0.0587,-0.0592,-0.0551,-0.0506,-0.0292,-0.0271,0,0,0,-0.0087,-0.0093,-0.0118,-0.0134,-0.0196,-0.0242,-0.0349,-0.0388,-0.0484,-0.0514,-0.0568,-0.0542,-0.0516,-0.0452,-0.0434,-0.0623,-0.0623,-0.0624,-0.0624,-0.0059,-0.0085,-0.01,-0.0145,-0.0189,-0.0272,-0.0309,-0.0367,-0.0463,-0.0469,-0.0492,-0.0402,-0.0333,-0.0318,-0.0489,-0.0489,-0.0489,-0.0489,-0.0488,-0.0031,-0.0026,-0.0049,-0.0082,-0.0145,-0.0187,-0.0266,-0.0319,-0.0346,-0.0419,-0.0397,-0.039,-0.0297,-0.0485,-0.0485,-0.0486,-0.0486,-0.0487,-0.0487,0.0015,0.0006,0.0007,-0.0004,-0.0042,-0.0122,-0.0103,-0.0196,-0.028,-0.0269,-0.0217,-0.0217,-0.0376,-0.028,-0.0279,-0.0279,-0.0279,-0.0278,-0.0278,0.006,0.0056,0.0086,0.0066,0.0071,0.0054,-0.0017,-0.0015,-0.0064,-0.0126,-0.0126,-0.0331,-0.0338,-0.0362,-0.0272,-0.0273,-0.0274,-0.0274,-0.0275,0.0104,0.0112,0.0175,0.0198,0.0235,0.0312,0.0224,0.024,0.02,0.0212,-0.004,-0.0048,-0.0043,-0.0056,-0.0073,0.0088,0.0088,0.0088,0.0088,0.0149,0.015,0.0278,0.036,0.0426,0.0441,0.058,0.051,0.0341,0.0196,0.019,0.0154,0.0139,0.0149,0.0131,0.0116,0.0325,0.0325,0.0325,0.0212,0.0241,0.0354,0.0432,0.052,0.0614,0.0769,0.072,0.0415,0.0327,0.0148,0.012,0.0051,0.0033,0.003,0.0008,-0.0023,0,0]}],[{"header":{"parameterUnit":"m.s-1","parameterCategory":2,"la1":30.2992,"la2":30.254,"lo1":-89.0895,"lo2":-89.0443,"dy":0.0025,"dx":0.0025,"nx":19,"ny":19,"refTime":"2026-05-12T21:00:00:Z","depth":"4","parameterNumber":2,"parameterNumberName":"U-component_of_CURRENTS"},"data":[0,0,0,0.0409,0.0412,0.0556,0.0557,0.0567,0.0567,0,0,0,0,0,0,0,0,0,0,0,0.0373,0.0374,0.0409,0.0412,0.0556,0.0557,0.0568,0.0567,0,0,0,0,0,0,0,0,0,0,0,0.0373,0.0374,0.0375,0.0413,0.0556,0.0557,0.0568,0.0507,0,0,0,0,0,0,0,0,0,0,0.0391,0.0381,0.0373,0.0375,0.0413,0.0556,0.0557,0.0506,0.0511,0.0446,0,0.0472,0,0.0499,0.0562,0.0561,0,0,0,0.0433,0.0378,0.0403,0.0375,0.0414,0.0556,0.0497,0.051,0.0515,0.045,0.0473,0.0474,0.0499,0.0561,0.0561,0.0485,0.0485,0,0,0.0425,0.0408,0.04,0.0406,0.0452,0.0492,0.0501,0.0516,0.0523,0.0473,0.0475,0.05,0.0561,0.056,0.0485,0.0485,0,0,0,0.0388,0.0402,0.0432,0.0405,0.0434,0.0496,0.0506,0.0524,0.053,0.0475,0.05,0.056,0.0559,0.0486,0.0485,0.0528,0,0,0,0.0384,0.0379,0.0428,0.0421,0.0435,0.0505,0.0514,0.0531,0.0533,0.05,0.056,0.0558,0.0486,0.0485,0.0528,0.0535,0,0,0,0.0366,0.0377,0.0392,0.0419,0.047,0.0506,0.0517,0.0534,0.0545,0.0561,0.0558,0.0486,0.0485,0.0527,0.0534,0.0592,0,0,0,0.0346,0.0361,0.0392,0.0418,0.0468,0.0509,0.0518,0.0545,0.0559,0.056,0.0486,0.0485,0.0527,0.0534,0.0591,0.0491,0,0,0,0.0345,0.0361,0.0374,0.0404,0.0448,0.0491,0.0513,0.053,0.0524,0.0472,0.0473,0.0528,0.0534,0.0592,0.0456,0,0,0,0,0.036,0.0378,0.0398,0.0434,0.0464,0.0495,0.0515,0.0524,0.0531,0.0527,0.0504,0.0505,0.0542,0.0477,0.0482,0.0482,0.0482,0.0483,0.0483,0.0339,0.0365,0.0392,0.0428,0.0446,0.0484,0.0511,0.0514,0.0508,0.0515,0.0524,0.0569,0.0498,0.0509,0.0509,0.0509,0.0509,0.0509,0.0509,0.034,0.0351,0.0382,0.0409,0.0426,0.0432,0.0478,0.0503,0.0551,0.053,0.0565,0.0502,0.0513,0.0512,0.0512,0.0511,0.0511,0.0511,0.0511,0.0323,0.0328,0.0346,0.037,0.0383,0.0414,0.0478,0.0526,0.0575,0.0613,0.0577,0.0603,0.0622,0.0657,0.0657,0.0658,0.0658,0.0658,0.0658,0.0284,0.0307,0.0322,0.0341,0.035,0.0394,0.0498,0.0564,0.0634,0.0602,0.0643,0.0619,0.0614,0.063,0.0663,0.0662,0.0661,0.0661,0.066,0.0266,0.0273,0.0305,0.0316,0.0358,0.0381,0.0486,0.0577,0.0651,0.0662,0.0603,0.0604,0.0586,0.0583,0.0597,0.0621,0.062,0.0619,0,0.0242,0.0252,0.0306,0.0341,0.0368,0.0392,0.0459,0.0542,0.0591,0.0541,0.0676,0.0607,0.0607,0.0584,0.0579,0.0593,0,0,0,0.0229,0.0255,0.0292,0.0345,0.0369,0.041,0.0477,0.0489,0.054,0.0596,0.0591,0.0598,0.0679,0.0676,0.0652,0.0647,0.0671,0,0]},{"header":{"parameterUnit":"m.s-1","parameterCategory":2,"la1":30.2992,"la2":30.254,"lo1":-89.0895,"lo2":-89.0443,"dy":0.0025,"dx":0.0025,"nx":19,"ny":19,"refTime":"2026-05-12T21:00:00:Z","depth":"4","parameterNumber":3,"parameterNumberName":"V-component_of_CURRENTS"},"data":[0,0,0,0.0532,0.0533,0.0652,0.0653,0.0793,0.0794,0,0,0,0,0,0,0,0,0,0,0,0.0527,0.0528,0.0531,0.0533,0.0652,0.0653,0.0793,0.0794,0,0,0,0,0,0,0,0,0,0,0,0.0527,0.0528,0.0529,0.0533,0.0652,0.0653,0.0793,0.0716,0,0,0,0,0,0,0,0,0,0,0.0606,0.0587,0.0528,0.0529,0.0533,0.0652,0.0654,0.0713,0.0721,0.0722,0,0.0743,0,0.0735,0.0799,0.0799,0,0,0,0.0576,0.058,0.06,0.0529,0.0534,0.0651,0.0611,0.0718,0.0727,0.0732,0.0744,0.0749,0.0738,0.08,0.08,0.0743,0.0742,0,0,0.0569,0.0562,0.0594,0.0605,0.0567,0.0606,0.0614,0.0724,0.074,0.0745,0.0751,0.074,0.08,0.0801,0.0744,0.0743,0,0,0,0.0521,0.0557,0.0576,0.06,0.0603,0.0609,0.0617,0.0737,0.074,0.0753,0.0741,0.08,0.0801,0.0745,0.0744,0.0716,0,0,0,0.052,0.0525,0.0573,0.0572,0.0601,0.0669,0.0628,0.0734,0.0745,0.0741,0.08,0.0802,0.0747,0.0744,0.072,0.0706,0,0,0,0.0522,0.0525,0.0538,0.0571,0.0597,0.0667,0.068,0.0738,0.0735,0.0799,0.0802,0.0748,0.0745,0.0723,0.0711,0.0645,0,0,0,0.0512,0.0538,0.0538,0.0576,0.0596,0.0685,0.0679,0.0772,0.0836,0.0801,0.0747,0.0744,0.0724,0.0714,0.0649,0.0635,0,0,0,0.0533,0.0541,0.0564,0.0565,0.0658,0.0672,0.0711,0.079,0.0772,0.0721,0.072,0.0719,0.0711,0.0646,0.0467,0,0,0,0,0.0563,0.0588,0.0625,0.0669,0.0725,0.0725,0.0788,0.0756,0.0703,0.0782,0.0668,0.0663,0.0624,0.0623,0.073,0.073,0.0731,0.0731,0.0731,0.0575,0.061,0.0658,0.0703,0.0748,0.0773,0.0751,0.0684,0.071,0.0633,0.0603,0.0484,0.0478,0.0561,0.0561,0.0561,0.0561,0.0561,0.0561,0.0579,0.0569,0.0634,0.0684,0.0692,0.0705,0.0642,0.062,0.0498,0.0512,0.0475,0.0548,0.0557,0.0557,0.0558,0.0558,0.0559,0.0559,0.0559,0.0535,0.0522,0.057,0.0601,0.0605,0.0612,0.0539,0.0498,0.0445,0.0407,0.0374,0.0441,0.0486,0.0376,0.0376,0.0375,0.0375,0.0375,0.0375,0.0417,0.0466,0.0463,0.0509,0.0509,0.0493,0.0463,0.0422,0.0381,0.0317,0.0381,0.0421,0.0427,0.0472,0.0369,0.037,0.0371,0.0371,0.0371,0.03,0.0327,0.0325,0.0334,0.0351,0.0353,0.0374,0.0325,0.0252,0.0194,0.026,0.0267,0.0271,0.028,0.0322,0.017,0.0169,0.0169,0,0.0189,0.0211,0.0201,0.0199,0.0192,0.0255,0.0208,0.021,0.0167,0.0141,0.0213,0.0287,0.0293,0.0301,0.0308,0.0357,0,0,0,0.0084,0.0112,0.0083,0.0129,0.0126,0.014,0.0196,0.0164,0.0191,0.0161,0.0154,0.0158,0.0352,0.0351,0.0373,0.0381,0.0454,0,0]}]]